User: anonymous   Login
Location: Brno
(49.2000°N, 16.6330°E)
Time: 17:16:19
(UTC+02:00)
Language:

BREEZE M DEB (TANK) - Orbit

View from above orbital plane
View from above orbital plane
View from above satellite
View from above satellite

Ground track
Ground track

The orbit data is extracted from the following two-line orbital elements,

1 28359U 04022B   17264.25706099 +.00001543 +00000-0 +22648-3 0  9991
2 28359 049.5445 310.9320 4658825 309.8548 017.6405 06.20303830291261
Epoch (UTC): 21 September 2017 06:10:10
Eccentricity: 0.4658825
inclination: 49.5445°
perigee height: 305 km
apogee height: 11963 km
right ascension of ascending node: 310.9320°
argument of perigee: 309.8548°
revolutions per day: 6.20303830
mean anomaly at epoch: 17.6405°
orbit number at epoch: 29126

The dashed part of the orbit path shows where the satellite is in the earth's shadow,  

DLR